Location: Unspecified
(0.0000°N, 0.0000°E)
Time: 06:47:28
(UTC+00:00)

A-11 Canister half - All Passes

Search period start: 11 March 2026 00:00
Search period end: 21 March 2026 00:00
Orbit: 1512 x 1687 km, 47.2° (Epoch: 8 March)

Date Brightness Start Highest point End Pass type
(mag) Time Alt. Az. Time Alt. Az. Time Alt. Az.
11 Mar - 01:27:18 10° WNW 01:35:45 34° SW 01:44:00 10° SSE night (unlit)
11 Mar - 10:09:36 10° S 10:16:11 21° SE 10:22:52 10° E daylight
11 Mar - 12:11:29 10° SW 12:21:04 80° NW 12:31:00 10° NE daylight
11 Mar - 14:21:18 10° WNW 14:26:25 15° NW 14:31:38 10° NNW daylight
11 Mar - 22:58:34 10° NNW 23:07:58 47° NE 23:17:01 10° ESE night (unlit)
12 Mar - 01:03:58 10° WNW 01:12:42 37° SW 01:21:12 10° SSE night (unlit)
12 Mar - 09:47:01 10° S 09:53:05 19° SE 09:59:14 10° E daylight
12 Mar - 11:48:28 10° SW 11:58:01 86° NW 12:07:56 10° NE daylight
12 Mar - 13:57:33 10° W 14:03:17 17° NW 14:09:08 10° N daylight
12 Mar - 22:35:38 10° NNW 22:44:54 43° NE 22:53:50 10° ESE night (unlit)
13 Mar - 00:40:41 10° WNW 00:49:39 41° SW 00:58:22 10° SSE night (unlit)
13 Mar - 09:24:31 10° S 09:29:59 17° SE 09:35:31 10° E daylight
13 Mar - 11:25:27 10° SW 11:34:58 88° SE 11:44:51 10° NE daylight
13 Mar - 13:33:54 10° W 13:40:08 19° NW 13:46:32 10° N daylight
13 Mar - 22:12:43 10° NNW 22:21:49 40° NE 22:30:36 10° ESE visible
14 Mar - 00:17:24 10° WNW 00:26:36 45° SW 00:35:31 10° SSE night (unlit)
14 Mar - 09:02:07 10° SSE 09:06:53 15° SE 09:11:41 10° ESE daylight
14 Mar - 11:02:27 10° SW 11:11:56 81° SE 11:21:46 10° NE daylight
14 Mar - 13:10:21 10° W 13:17:01 21° NW 13:23:52 10° N daylight
14 Mar - 21:49:50 10° NNW 21:58:45 36° NE 22:07:21 10° ESE visible
14 Mar - 23:54:10 10° WNW 00:03:33 49° SW 00:12:39 10° SSE night (unlit)
15 Mar - 08:39:54 10° SSE 08:43:46 13° SE 08:47:39 10° ESE daylight
15 Mar - 10:39:28 10° SW 10:48:53 75° SE 10:58:39 10° NE daylight
15 Mar - 12:46:51 10° W 12:53:54 23° NW 13:01:11 10° N daylight
15 Mar - 21:26:58 10° NNW 21:35:40 33° NE 21:44:04 10° ESE visible
15 Mar - 23:30:57 10° NW 23:40:30 54° SW 23:49:45 10° SSE night (unlit)
16 Mar - 08:18:01 10° SSE 08:20:38 11° SE 08:23:17 10° ESE daylight
16 Mar - 10:16:30 10° SSW 10:25:52 69° SE 10:35:32 10° NE daylight
16 Mar - 12:23:25 10° W 12:30:48 25° NW 12:38:25 10° N daylight
16 Mar - 21:04:07 10° N 21:12:34 30° NE 21:20:45 10° ESE visible
16 Mar - 23:07:45 10° NW 23:17:27 59° SW 23:26:50 10° SSE night (unlit)
17 Mar - 09:53:34 10° SSW 10:02:50 63° SE 10:12:23 10° NE daylight
17 Mar - 12:00:01 10° WSW 12:07:42 27° NW 12:15:38 10° N daylight
17 Mar - 20:41:18 10° N 20:49:27 28° NE 20:57:23 10° ESE visible
17 Mar - 22:44:35 10° NW 22:54:25 64° SW 23:03:54 10° SSE visible
18 Mar - 00:58:25 10° SW 00:59:46 10° SW 01:01:08 10° SW night (unlit)
18 Mar - 09:30:39 10° SSW 09:39:48 58° SE 09:49:13 10° NE daylight
18 Mar - 11:36:40 10° WSW 11:44:37 30° NW 11:52:50 10° N daylight
18 Mar - 20:18:31 10° N 20:26:21 25° NE 20:33:59 10° E visible
18 Mar - 22:21:26 10° NW 22:31:22 70° SW 22:40:58 10° SSE visible
19 Mar - 00:33:22 10° WSW 00:36:38 12° SW 00:39:53 10° SSW night (unlit)
19 Mar - 09:07:45 10° SSW 09:16:46 53° SE 09:26:03 10° NE daylight
19 Mar - 11:13:23 10° WSW 11:21:32 33° NW 11:30:00 10° NNE daylight
19 Mar - 19:55:46 10° N 20:03:14 23° NE 20:10:33 10° E visible
19 Mar - 21:58:18 10° NW 22:08:18 76° SW 22:17:59 10° SE visible
20 Mar - 00:09:07 10° WSW 00:13:30 14° SW 00:17:50 10° SSW night (unlit)
20 Mar - 08:44:51 10° SSW 08:53:44 48° SE 09:02:50 10° ENE daylight
20 Mar - 10:50:05 10° WSW 10:58:28 36° NW 11:07:08 10° NNE daylight
20 Mar - 19:33:03 10° N 19:40:07 21° NE 19:47:02 10° E visible
20 Mar - 21:35:11 10° NW 21:45:15 82° SW 21:55:00 10° SE visible
20 Mar - 23:45:09 10° W 23:50:22 15° SW 23:55:32 10° SSW night (unlit)
